Regional Weather Roundup
Issued by NWS

Home | Current Version | Previous Version | Text Only | Print | Product List | Glossary Off
Versions: 1 2 3 4 5 6 7 8 9 10 11 12 13 14 15 16 17 18 19 20 21 22 23 24 25 26 27 28 29 30 31 32 33 34 35 36 37 38 39 40 41 42 43 44 45 46 47 48 49 50

000
ASUS43 KLMK 261802
RWRKY
KENTUCKY REGIONAL WEATHER ROUNDUP
NATIONAL WEATHER SERVICE LOUISVILLE KY
200 PM EDT MON JUN 26 2017

NOTE "FAIR" INDICATES FEW OR NO CLOUDS BELOW 12,000 FEET
WITH NO SIGNIFICANT WEATHER AND/OR OBSTRUCTIONS TO VISIBILITY.

KYZ001>023-026-027-061>063-070>075-261900-
WESTERN AND SOUTH CENTRAL KENTUCKY

CITY           SKY/WX    TMP DP  RH WIND       PRES   REMARKS
PADUCAH        SUNNY     77  45  32 VRB3      30.18F
HENDERSON      SUNNY     76  48  37 VRB7      30.19F
OWENSBORO      SUNNY     76  49  38 NW14      30.19F
HOPKINSVILLE   PTSUNNY   77  51  39 W8        30.18F
BOWLING GREEN  SUNNY     78  51  38 NW7       30.18F
GLASGOW        NOT AVBL
$$

KYZ024-025-028>034-038-045-046-053-261900-
NORTH CENTRAL KENTUCKY

CITY           SKY/WX    TMP DP  RH WIND       PRES   REMARKS
LOUISVILLE/SDF MOSUNNY   78  49  35 NW14G20   30.17F
LOUISVILLE/LOU MOSUNNY   76  46  34 NW13      30.16F
FORT KNOX      SUNNY     74  50  42 W6        30.16F
$$

KYZ035>037-039>044-047>052-055>060-089>105-261900-
NORTHEAST KENTUCKY

CITY           SKY/WX    TMP DP  RH WIND       PRES   REMARKS
LEXINGTON      MOSUNNY   74  46  36 NW10G18   30.18S
COVINGTON      PTSUNNY   71  48  43 NW14      30.15F
FRANKFORT      MOSUNNY   76  48  37 W9        30.16F
$$

KYZ054-064>069-076>088-106>120-261900-
SOUTHEAST KENTUCKY

CITY           SKY/WX    TMP DP  RH WIND       PRES   REMARKS
JACKSON        MOSUNNY   74  54  49 MISG      30.16F
LONDON         MOSUNNY   75  49  39 VRB3      30.17F
SOMERSET       SUNNY     73  50  43 W7        30.18S
MIDDLESBORO    PTSUNNY   77  53  43 SW6       30.16F
MONTICELLO     PTCLDY    76  55  48 W17       30.19F
$$




USA.gov is the U.S. government's official web portal to all federal, state and local government web resources and services.